Location: *
(55.5817°S, 142.4781°W)
Time: 08:39:27
(UTC+00:00)

Meteor 1-24 Rocket - Pass Details

Date: 29 April 2025
Orbit: 790 x 924 km, 81.2° (Epoch: 18 May)

Event Time Altitude Azimuth Distance (km) Brightness Sun altitude
Rises 15:00:18 0° 198° (SSW) 3,387 6.6 -15.9°
Reaches altitude 10° 15:02:52 10° 206° (SSW) 2,432 5.8 -15.5°
Maximum altitude 15:07:52 38° 271° (W) 1,228 4.0 -14.8°
Drops below altitude 10° 15:12:45 10° 338° (NNW) 2,373 5.9 -14.1°
Sets 15:15:14 0° 345° (NNW) 3,294 6.7 -13.7°
